Weather in Akaroa

New Zealand     43°48′17″S   172°58′02″E
В апреле 2022 года жителям России запретили посещать сайт meteo.paraplan.net по решению Генеральной прокуратуры. Аудитория сайта уменьшилась в 10 раз. Владельцы сайта не видят смысла в поддержке погодного сервера в таких условиях. Сайт будет закрыт в октябре.
temp.,
°C
wind,
m/s
gust,
m/s
humid.,
%
clouds,
%
prec.,
mm/h
press.,
hPa
HPBL,
m
30 september, fri
fri3001:00+6s3697100 2.9 1021971
04:00+4s3797100 1.9 1022834
07:00+3ssw3798100 3.3 1025731
10:00+3sw1394100 2.4 1027299
13:00+7sse136869 2.7 10271199
16:00+8ne225874 0.0 10261281
19:00+5n117816 0.1 1028152
22:00+1w00941 0.0 102842
1 october, sat
sat101:00+1nnw119288 0.0 102747
04:00+1n1192100 0.0 102680
07:00+1ne119092 0.0 1025121
10:00+7ne346487 0.0 10231102
13:00+8nne356286 0.0 10211111
16:00+8nne356483 0.0 10191060
19:00+6ne237499 0.0 1019486
22:00+6nne128092 0.0 1019140
2 october, sun
sun201:00+5n018792 0.0 101886
04:00+6ne118393 0.0 1017108
07:00+5ene118698 0.0 101699
10:00+7ne237585 0.0 1015662
13:00+8ne336975 0.0 1014828
16:00+9nne33628 0.0 1012869
19:00+6nne24740 0.0 1011354
22:00+4nne238325 0.0 1010116
3 october, mon
mon301:00+4nne2383100 0.0 1008124
04:00+4nne128795 0.0 100598
07:00+5nnw118638 0.0 100473
10:00+9ssw2362100 0.0 1004693
13:00+10ssw3763100 0.0 1004952
16:00+10ssw4963100 0.0 10051249
19:00+6ssw3791100 0.2 1008602
22:00+5ssw248981 0.1 1011248
4 october, tue
tue401:00+4sw118655 0.1 101254
04:00+3nnw11906 0.0 101147
07:00+5nne25838 0.0 1011361
10:00+8nne467475 0.0 1010741
13:00+9nne347544 0.0 1008616
16:00+12nne23660 0.0 1005569
19:00+10wsw00790 0.0 100312
22:00+7wsw239032 0.0 100452